EW5900 Weather Reports


Display with metric or nautical units.
time (UTC)temp
F
wind
direction
speed
MPH
gust
MPH
rain 1hr
in
rain 24hr
in
rain mn
in
humidity
%
barometer
mb
20180618184644 84 225 6.0 14.0 0.00 0.00 0.00 66 1019.9
20180618184210 84 225 8.0 10.0 0.00 0.00 0.00 67 1019.9
20180618183735 84 270 9.0 11.0 0.00 0.00 0.00 66 1019.9
20180618183258 84 248 11.0 11.0 0.00 0.00 0.00 66 1019.9
20180618182823 84 248 7.0 8.0 0.00 0.00 0.00 66 1019.9
20180618182348 84 225 8.0 10.0 0.00 0.00 0.00 66 1020.3
20180618181439 84 225 5.0 10.0 0.00 0.00 0.00 66 1020.3
20180618181004 83 225 8.0 9.0 0.00 0.00 0.00 67 1020.3
20180618180528 83 225 9.0 11.0 0.00 0.00 0.00 68 1020.3
20180618180053 84 248 6.0 10.0 0.00 0.00 0.00 66 1020.3
20180618175618 84 180 3.0 8.0 0.00 0.00 0.00 68 1020.3
20180618175143 83 248 5.0 10.0 0.00 0.00 0.00 69 1020.3
20180618174708 83 248 10.0 11.0 0.00 0.00 0.00 68 1020.6
20180618174233 83 248 8.0 12.0 0.00 0.00 0.00 68 1020.6
20180618173758 83 248 12.0 12.0 0.00 0.00 0.00 68 1020.6
20180618173323 83 225 7.0 11.0 0.00 0.00 0.00 68 1020.6
20180618172414 83 270 8.0 11.0 0.00 0.00 0.00 67 1020.6
20180618171939 84 248 11.0 11.0 0.00 0.00 0.00 67 1020.6
20180618171504 83 248 6.0 10.0 0.00 0.00 0.00 66 1020.6
20180618171029 83 225 7.0 9.0 0.00 0.00 0.00 66 1020.6
20180618170553 83 225 7.0 10.0 0.00 0.00 0.00 66 1020.6
20180618170118 84 225 4.0 9.0 0.00 0.00 0.00 66 1020.6
20180618165642 83 248 3.0 5.0 0.00 0.00 0.00 69 1020.6
20180618165207 83 225 5.0 12.0 0.00 0.00 0.00 68 1020.6
20180618164732 83 248 6.0 8.0 0.00 0.00 0.00 68 1020.6
20180618164257 83 270 6.0 12.0 0.00 0.00 0.00 68 1020.6
20180618163822 83 248 5.0 9.0 0.00 0.00 0.00 67 1020.6
20180618163346 83 248 6.0 6.0 0.00 0.00 0.00 66 1021.3
20180618162911 83 248 7.0 9.0 0.00 0.00 0.00 64 1021.3
20180618162437 84 270 1.0 10.0 0.00 0.00 0.00 64 1021.3
20180618162001 83 203 6.0 5.0 0.00 0.00 0.00 65 1021.3
20180618161526 84 293 5.0 8.0 0.00 0.00 0.00 65 1021.3
20180618161051 83 270 3.0 6.0 0.00 0.00 0.00 66 1021.3
20180618160616 83 248 6.0 8.0 0.00 0.00 0.00 66 1021.3
20180618160140 83 270 0.0 8.0 0.00 0.00 0.00 65 1021.3
20180618155704 83 270 6.0 7.0 0.00 0.00 0.00 64 1021.3
20180618154319 83 248 10.0 9.0 0.00 0.00 0.00 64 1021.3
20180618152932 83 248 8.0 8.0 0.00 0.00 0.00 69 1021.3
20180618152021 83 248 5.0 8.0 0.00 0.00 0.00 68 1020.6
20180618151545 83 225 11.0 8.0 0.00 0.00 0.00 69 1020.6
20180618151111 83 248 8.0 10.0 0.00 0.00 0.00 68 1020.6
20180618150636 83 248 8.0 8.0 0.00 0.00 0.00 67 1020.6
20180618150201 83 248 7.0 8.0 0.00 0.00 0.00 67 1020.6
20180618145725 83 270 5.0 6.0 0.00 0.00 0.00 68 1020.6
20180618144813 83 270 5.0 8.0 0.00 0.00 0.00 67 1020.6
20180618144338 83 270 8.0 8.0 0.00 0.00 0.00 66 1020.6
20180618143903 83 248 6.0 6.0 0.00 0.00 0.00 67 1020.6
20180618142954 83 270 3.0 10.0 0.00 0.00 0.00 67 1020.6
20180618142519 83 270 5.0 6.0 0.00 0.00 0.00 67 1020.6
20180618142044 83 225 6.0 9.0 0.00 0.00 0.00 66 1020.6
20180618141609 83 270 9.0 9.0 0.00 0.00 0.00 66 1020.6
20180618141133 83 293 5.0 5.0 0.00 0.00 0.00 65 1020.6
20180618140659 82 270 5.0 5.0 0.00 0.00 0.00 67 1020.6
20180618140224 82 248 5.0 5.0 0.00 0.00 0.00 67 1020.6
20180618135313 82 293 6.0 7.0 0.00 0.00 0.00 68 1021.3
20180618134404 82 248 4.0 7.0 0.00 0.00 0.00 67 1021.3
20180618133929 83 270 5.0 5.0 0.00 0.00 0.00 70 1021.3
20180618133453 82 270 6.0 6.0 0.00 0.00 0.00 70 1021.3
20180618133018 82 248 3.0 6.0 0.00 0.00 0.00 70 1021.3
20180618132542 82 293 7.0 6.0 0.00 0.00 0.00 69 1021.3
20180618132108 82 270 5.0 6.0 0.00 0.00 0.00 70 1021.3
20180618131633 82 248 6.0 5.0 0.00 0.00 0.00 70 1021.3
20180618131157 82 248 5.0 6.0 0.00 0.00 0.00 71 1021.3
20180618130723 82 270 5.0 6.0 0.00 0.00 0.00 70 1021.3
20180618130247 81 293 1.0 5.0 0.00 0.00 0.00 72 1021.3
20180618125337 81 293 4.0 5.0 0.00 0.00 0.00 74 1021.3
20180618124902 81 293 5.0 6.0 0.00 0.00 0.00 75 1021.3
20180618123950 80 270 4.0 7.0 0.00 0.00 0.00 75 1021.3
20180618123515 80 270 7.0 7.0 0.00 0.00 0.00 78 1021.3
20180618123039 80 248 4.0 5.0 0.00 0.00 0.00 79 1021.3
20180618122604 80 270 2.0 6.0 0.00 0.00 0.00 80 1021.3
20180618122129 80 270 2.0 6.0 0.00 0.00 0.00 81 1021.3
20180618121654 80 293 5.0 5.0 0.00 0.00 0.00 81 1021.3
20180618121219 79 270 5.0 5.0 0.00 0.00 0.00 82 1021.3
20180618120744 79 293 3.0 5.0 0.00 0.00 0.00 84 1021.3
20180618120309 79 315 0.0 0.0 0.00 0.00 0.00 85 1021.3
20180618115833 78 270 0.0 0.0 0.00 0.00 0.00 86 1020.6
20180618115358 78 338 0.0 0.0 0.00 0.00 0.00 86 1020.6
20180618114922 78 315 0.0 0.0 0.00 0.00 0.00 86 1020.6
20180618114448 78 293 0.0 3.0 0.00 0.00 0.00 87 1020.6
20180618114011 78 315 3.0 3.0 0.00 0.00 0.00 88 1020.6
20180618113537 77 23 3.0 4.0 0.00 0.00 0.00 88 1020.6
20180618113101 77 338 4.0 4.0 0.00 0.00 0.00 88 1020.6
20180618112625 77 315 1.0 4.0 0.00 0.00 0.00 88 1020.6
20180618111714 77 338 5.0 4.0 0.00 0.00 0.00 89 1020.6
20180618111238 77 338 3.0 5.0 0.00 0.00 0.00 89 1020.6
20180618110803 77 315 3.0 4.0 0.00 0.00 0.00 88 1020.6
20180618110328 77 0 3.0 5.0 0.00 0.00 0.00 88 1020.3
20180618105853 77 315 3.0 3.0 0.00 0.00 0.00 88 1020.3
20180618104943 77 315 3.0 3.0 0.00 0.00 0.00 88 1020.3
20180618104507 77 338 3.0 3.0 0.00 0.00 0.00 88 1020.3
20180618104032 77 338 3.0 4.0 0.00 0.00 0.00 88 1020.3
20180618103557 76 315 3.0 3.0 0.00 0.00 0.00 88 1020.3
20180618103122 76 0 3.0 3.0 0.00 0.00 0.00 88 1019.9
20180618102646 77 338 1.0 1.0 0.00 0.00 0.00 88 1019.9
20180618102210 77 338 1.0 3.0 0.00 0.00 0.00 88 1019.9
20180618101301 77 248 0.0 0.0 0.00 0.00 0.00 88 1019.9
20180618100826 76 270 0.0 0.0 0.00 0.00 0.00 88 1019.9
20180618100351 76 270 0.0 3.0 0.00 0.00 0.00 88 1019.9
20180618095916 76 315 3.0 3.0 0.00 0.00 0.00 88 1019.6
20180618095441 76 293 2.0 3.0 0.00 0.00 0.00 88 1019.6
20180618095006 76 293 3.0 3.0 0.00 0.00 0.00 88 1019.6
20180618094531 76 270 2.0 3.0 0.00 0.00 0.00 88 1019.6
20180618093620 76 293 3.0 3.0 0.00 0.00 0.00 88 1019.6
20180618093146 76 293 3.0 3.0 0.00 0.00 0.00 88 1019.6
20180618092710 76 315 3.0 5.0 0.00 0.00 0.00 88 1019.6
20180618092235 76 315 3.0 3.0 0.00 0.00 0.00 88 1019.6
20180618091325 76 293 1.0 2.0 0.00 0.00 0.00 88 1019.6
20180618090850 76 315 2.0 5.0 0.00 0.00 0.00 89 1019.6
20180618090415 76 270 5.0 5.0 0.00 0.00 0.00 89 1019.6
20180618085940 76 293 3.0 3.0 0.00 0.00 0.00 89 1019.6
20180618085505 76 293 3.0 3.0 0.00 0.00 0.00 89 1019.6
20180618085028 76 315 1.0 3.0 0.00 0.00 0.00 89 1019.3
20180618084554 76 293 3.0 3.0 0.00 0.00 0.00 89 1019.6
20180618084118 76 315 3.0 3.0 0.00 0.00 0.00 89 1019.3
20180618083210 76 315 2.0 5.0 0.00 0.00 0.00 89 1019.6
20180618082734 76 338 5.0 5.0 0.00 0.00 0.00 89 1019.6
20180618082259 76 0 3.0 5.0 0.00 0.00 0.00 89 1019.6
20180618081824 76 0 4.0 4.0 0.00 0.00 0.00 89 1019.6
20180618081349 76 0 2.0 5.0 0.00 0.00 0.00 88 1019.6
20180618080914 76 0 5.0 6.0 0.00 0.00 0.00 88 1019.6
20180618080438 76 23 5.0 5.0 0.00 0.00 0.00 88 1019.6
20180618080004 76 45 3.0 5.0 0.00 0.00 0.00 88 1019.3
20180618075528 76 0 6.0 4.0 0.00 0.00 0.00 88 1019.3
20180618075053 76 23 3.0 4.0 0.00 0.00 0.00 88 1019.3
20180618074618 76 23 4.0 0.0 0.00 0.00 0.00 88 1019.3
20180618074143 76 45 0.0 0.0 0.00 0.00 0.00 87 1019.3
20180618073708 76 45 0.0 0.0 0.00 0.00 0.00 87 1019.3
20180618072758 77 23 1.0 2.0 0.00 0.00 0.00 87 1019.3
20180618072323 77 68 2.0 2.0 0.00 0.00 0.00 87 1019.3
20180618071848 77 45 1.0 3.0 0.00 0.00 0.00 86 1019.3
20180618070938 77 45 5.0 5.0 0.00 0.00 0.00 86 1019.3
20180618070503 77 68 3.0 3.0 0.00 0.00 0.00 85 1019.6
20180618070028 77 23 0.0 0.0 0.00 0.00 0.00 85 1019.6
20180618065552 77 68 0.0 0.0 0.00 0.00 0.00 85 1019.6
20180618064642 77 45 0.0 0.0 0.00 0.00 0.00 85 1019.6
20180618064207 77 45 0.0 0.0 0.00 0.00 0.00 84 1019.6
20180618063732 77 135 0.0 0.0 0.00 0.00 0.00 84 1019.6
20180618063257 77 113 0.0 0.0 0.00 0.00 0.00 84 1019.6
20180618062822 77 135 0.0 0.0 0.00 0.00 0.00 84 1019.6
20180618062347 77 135 0.0 0.0 0.00 0.00 0.00 84 1019.6
20180618061913 78 90 0.0 0.0 0.00 0.00 0.00 84 1019.6
20180618061001 78 180 0.0 0.0 0.00 0.00 0.00 84 1019.6
20180618060526 78 113 0.0 0.0 0.00 0.00 0.00 84 1019.9
20180618060051 78 203 0.0 0.0 0.00 0.00 0.00 83 1019.9
20180618055616 78 180 0.0 0.0 0.00 0.00 0.00 83 1019.9
20180618055140 78 180 0.0 0.0 0.00 0.00 0.00 83 1019.9
20180618054705 78 113 0.0 0.0 0.00 0.00 0.00 83 1019.9
20180618054229 78 135 0.0 0.0 0.00 0.00 0.00 83 1019.9
20180618053318 78 135 0.0 0.0 0.00 0.00 0.00 83 1019.9
20180618052404 78 203 0.0 0.0 0.00 0.00 0.00 83 1019.9
20180618051929 78 180 0.0 0.0 0.00 0.00 0.00 83 1019.9
20180618051454 78 180 0.0 0.0 0.00 0.00 0.00 83 1019.9
20180618051019 78 135 0.0 0.0 0.00 0.00 0.00 83 1020.3
20180618050109 78 225 0.0 0.0 0.00 0.00 0.00 83 1020.3
20180618045634 78 248 0.0 0.0 0.00 0.00 0.00 82 1020.3
20180618045159 78 248 0.0 0.0 0.00 0.00 0.00 82 1020.3
20180618044724 78 248 0.0 0.0 0.00 0.00 0.00 82 1020.3
20180618043340 78 248 0.0 0.0 0.00 0.00 0.00 82 1020.3
20180618042427 78 270 0.0 0.0 0.00 0.00 0.00 82 1020.6
20180618041952 79 248 0.0 1.0 0.00 0.00 0.00 81 1020.3
20180618041517 79 248 2.0 2.0 0.00 0.00 0.00 81 1020.3
20180618041041 79 293 1.0 3.0 0.00 0.00 0.00 81 1020.3
20180618040607 79 248 3.0 4.0 0.00 0.00 0.00 81 1020.6
20180618040131 79 270 4.0 4.0 0.00 0.00 0.00 81 1020.6
20180618034745 78 225 3.0 2.0 0.00 0.00 0.00 81 1020.6
20180618034310 78 225 1.0 2.0 0.00 0.00 0.00 81 1020.6
20180618033835 78 225 3.0 3.0 0.00 0.00 0.00 81 1020.3
20180618033400 78 225 0.0 1.0 0.00 0.00 0.00 81 1020.6
20180618032925 79 225 0.0 2.0 0.00 0.00 0.00 82 1020.6
20180618032449 79 225 2.0 2.0 0.00 0.00 0.00 81 1020.6
20180618032014 79 203 0.0 0.0 0.00 0.00 0.00 81 1020.6
20180618031538 79 225 0.0 2.0 0.00 0.00 0.00 81 1020.6
20180618031103 79 203 1.0 3.0 0.00 0.00 0.00 81 1020.6
20180618030628 79 248 1.0 3.0 0.00 0.00 0.00 81 1020.6
20180618030153 79 225 1.0 3.0 0.00 0.00 0.00 81 1020.6
20180618025719 79 225 3.0 3.0 0.00 0.00 0.00 82 1020.6
20180618025244 79 225 1.0 2.0 0.00 0.00 0.00 82 1020.6
20180618024333 79 203 0.0 0.0 0.00 0.00 0.00 82 1020.6
20180618023858 78 225 0.0 0.0 0.00 0.00 0.00 82 1020.6
20180618023423 79 203 0.0 0.0 0.00 0.00 0.00 82 1020.6
20180618022513 79 225 0.0 0.0 0.00 0.00 0.00 82 1020.6
20180618022037 79 203 0.0 0.0 0.00 0.00 0.00 82 1020.6
20180618021602 79 203 0.0 0.0 0.00 0.00 0.00 82 1020.6
20180618021127 79 203 0.0 0.0 0.00 0.00 0.00 82 1020.6
20180618020652 79 203 0.0 0.0 0.00 0.00 0.00 82 1020.6
20180618015737 79 225 0.0 0.0 0.00 0.00 0.00 82 1020.3
20180618015303 79 203 0.0 0.0 0.00 0.00 0.00 82 1020.3
20180618014827 79 180 0.0 0.0 0.00 0.00 0.00 82 1020.3
20180618013917 79 203 2.0 2.0 0.00 0.00 0.00 81 1019.9
20180618013443 79 203 2.0 2.0 0.00 0.00 0.00 81 1020.3
20180618013008 79 225 4.0 3.0 0.00 0.00 0.00 81 1019.9
20180618012058 79 225 3.0 4.0 0.00 0.00 0.00 81 1019.9
20180618011623 79 248 4.0 4.0 0.00 0.00 0.00 81 1019.9
20180618011148 79 248 3.0 3.0 0.00 0.00 0.00 81 1019.9
20180618010712 79 203 2.0 4.0 0.00 0.00 0.00 81 1019.9
20180618010236 79 203 3.0 5.0 0.00 0.00 0.00 81 1019.9
20180618005326 79 225 4.0 5.0 0.00 0.00 0.00 80 1019.9
20180618004850 79 225 5.0 6.0 0.00 0.00 0.00 80 1019.6
20180618004415 79 248 5.0 5.0 0.00 0.00 0.00 80 1019.6
20180618003940 79 248 5.0 6.0 0.00 0.00 0.00 80 1019.6
20180618003505 79 248 4.0 7.0 0.00 0.00 0.00 80 1019.6
20180618003030 79 225 5.0 6.0 0.00 0.00 0.00 79 1019.6
20180618002555 79 248 5.0 8.0 0.00 0.00 0.00 80 1019.6
20180618002120 79 248 8.0 8.0 0.00 0.00 0.00 79 1019.6
20180618001644 80 248 7.0 7.0 0.00 0.00 0.00 79 1019.6
20180618000734 80 248 3.0 7.0 0.00 0.00 0.00 77 1019.6
20180618000259 80 248 5.0 6.0 0.00 0.00 0.00 77 1019.6
20180617235824 80 248 6.0 6.0 0.00 0.00 0.00 77 1019.6
20180617235349 80 270 4.0 8.0 0.00 0.00 0.00 77 1019.6
20180617234437 80 225 4.0 6.0 0.00 0.00 0.00 76 1019.6
20180617234002 80 270 5.0 5.0 0.00 0.00 0.00 75 1019.6
20180617233527 80 248 4.0 6.0 0.00 0.00 0.00 74 1019.6
20180617233052 80 248 6.0 6.0 0.00 0.00 0.00 74 1019.6
20180617232617 80 248 6.0 6.0 0.00 0.00 0.00 73 1019.6
20180617232142 81 248 6.0 8.0 0.00 0.00 0.00 73 1019.6
20180617231707 81 248 6.0 7.0 0.00 0.00 0.00 71 1019.6
20180617231232 81 248 4.0 8.0 0.00 0.00 0.00 71 1019.6
20180617230756 81 225 3.0 7.0 0.00 0.00 0.00 70 1019.6
20180617225845 82 225 6.0 6.0 0.00 0.00 0.00 68 1019.6
20180617225410 82 248 1.0 6.0 0.00 0.00 0.00 67 1019.6
20180617224935 82 270 6.0 6.0 0.00 0.00 0.00 66 1019.3
20180617224459 82 248 6.0 6.0 0.00 0.00 0.00 67 1019.3
20180617224024 82 225 6.0 9.0 0.00 0.00 0.00 68 1019.3
20180617223549 82 248 9.0 8.0 0.00 0.00 0.00 68 1019.6
20180617222639 82 270 7.0 8.0 0.00 0.00 0.00 68 1019.3
20180617222204 82 225 5.0 7.0 0.00 0.00 0.00 68 1019.3
20180617221729 82 270 6.0 7.0 0.00 0.00 0.00 69 1019.3
20180617220344 82 270 10.0 10.0 0.00 0.00 0.00 69 1019.3
20180617215909 82 248 10.0 10.0 0.00 0.00 0.00 67 1019.3
20180617215434 82 270 6.0 8.0 0.00 0.00 0.00 67 1019.6
20180617214958 82 248 6.0 9.0 0.00 0.00 0.00 67 1019.6
20180617214523 82 248 3.0 6.0 0.00 0.00 0.00 67 1019.6
20180617214048 83 248 8.0 8.0 0.00 0.00 0.00 67 1019.9
20180617213613 82 248 6.0 7.0 0.00 0.00 0.00 67 1019.9
20180617213138 82 270 1.0 8.0 0.00 0.00 0.00 67 1019.9
20180617212703 82 248 6.0 10.0 0.00 0.00 0.00 67 1019.9
20180617212228 82 248 3.0 7.0 0.00 0.00 0.00 68 1019.9
20180617211753 82 248 5.0 6.0 0.00 0.00 0.00 69 1019.9
20180617211318 82 225 5.0 6.0 0.00 0.00 0.00 66 1019.9
20180617210843 83 270 6.0 8.0 0.00 0.00 0.00 67 1019.9
20180617210407 82 248 5.0 11.0 0.00 0.00 0.00 68 1019.6
20180617205932 82 270 11.0 11.0 0.00 0.00 0.00 69 1019.6
20180617205457 82 248 8.0 11.0 0.00 0.00 0.00 67 1019.6
20180617205022 82 248 7.0 7.0 0.00 0.00 0.00 69 1019.6
20180617204546 82 248 8.0 9.0 0.00 0.00 0.00 69 1019.9
20180617204111 82 248 6.0 7.0 0.00 0.00 0.00 69 1019.9
20180617203636 82 248 7.0 10.0 0.00 0.00 0.00 70 1019.9
20180617203201 82 248 5.0 7.0 0.00 0.00 0.00 70 1020.3
20180617202726 82 293 7.0 10.0 0.00 0.00 0.00 69 1019.9
20180617202251 82 248 9.0 10.0 0.00 0.00 0.00 69 1019.9
20180617201815 82 248 9.0 9.0 0.00 0.00 0.00 68 1019.9
20180617201340 82 270 5.0 7.0 0.00 0.00 0.00 69 1019.9
20180617200905 82 293 6.0 8.0 0.00 0.00 0.00 69 1019.9
20180617195953 81 248 9.0 10.0 0.00 0.00 0.00 69 1019.9
20180617195040 82 270 6.0 13.0 0.00 0.00 0.00 68 1020.3
20180617194605 81 270 13.0 13.0 0.00 0.00 0.00 69 1020.3
20180617194130 82 270 9.0 11.0 0.00 0.00 0.00 67 1020.3
20180617193655 82 248 11.0 11.0 0.00 0.00 0.00 66 1020.3
20180617193219 82 293 8.0 10.0 0.00 0.00 0.00 66 1020.3
20180617192742 82 270 10.0 12.0 0.00 0.00 0.00 65 1020.3
20180617192307 82 248 8.0 9.0 0.00 0.00 0.00 66 1020.3
20180617191832 82 248 9.0 9.0 0.00 0.00 0.00 68 1020.3
20180617191355 82 248 7.0 10.0 0.00 0.00 0.00 68 1020.3
20180617190920 82 270 10.0 11.0 0.00 0.00 0.00 68 1020.3
20180617190445 82 270 8.0 11.0 0.00 0.00 0.00 68 1020.3
20180617190010 82 248 11.0 11.0 0.00 0.00 0.00 67 1020.3
20180617185535 83 248 12.0 10.0 0.00 0.00 0.00 68 1020.3
20180617185100 82 248 4.0 13.0 0.00 0.00 0.00 69 1020.3